Regional Weather Roundup
Issued by NWS

Home | Current Version | Previous Version | Text Only | Print | Product List | Glossary Off
Versions: 1 2 3 4 5 6 7 8 9 10 11 12 13 14 15 16 17 18 19 20 21 22 23 24 25 26 27 28 29 30 31 32 33 34 35 36 37 38 39 40 41 42 43 44 45 46 47 48 49 50

787
ASUS43 KFSD 270102
RWRSD

WEATHER ROUNDUP FOR SOUTH DAKOTA
NATIONAL WEATHER SERVICE SIOUX FALLS SD
800 PM CDT MON JUN 26 2017

NOTE: "FAIR" INDICATES FEW OR NO CLOUDS BELOW 12,000 FEET WITH NO
SIGNIFICANT WEATHER AND/OR OBSTRUCTIONS TO VISIBILITY.


SDZ001>005-009-010-012>017-270200-
NORTHWEST AND NORTH CENTRAL SOUTH DAKOTA

CITY           SKY/WX    TMP DP  RH WIND       PRES   REMARKS
BUFFALO          N/A     79  37  22 SE23      29.94F
FAITH            N/A     73  41  31 SE20      30.05F
MOBRIDGE       SUNNY     74  33  22 SE9       30.06F
$$

SDZ012>016-024>037-041>051-057-063-072>074-270200-
SOUTHWEST AND SOUTH CENTRAL SOUTH DAKOTA

CITY           SKY/WX    TMP DP  RH WIND       PRES   REMARKS
RAPID CTY ARPT SUNNY     78  39  24 SE14G22   30.04F
PIERRE         SUNNY     71  40  32 E10       30.09S
CUSTER         SUNNY     69  36  29 S7        30.16F
ELLSWORTH AFB  SUNNY     79  40  24 S21       30.03F
PHILIP         MOSUNNY   76  39  26 E18       30.06F
PINE RIDGE     SUNNY     76  41  28 SE13      30.08F
SPEARFISH      FAIR      77  45  31 E13G20    30.02F
WINNER         FAIR      73  36  25 E8        30.12S
$$

SDZ004>011-016>023-039-040-270200-
NORTHEAST SOUTH DAKOTA

CITY           SKY/WX    TMP DP  RH WIND       PRES   REMARKS
ABERDEEN       SUNNY     69  40  34 SE5       30.12F
WATERTOWN      SUNNY     67  38  34 CALM      30.14S
BROOKINGS      SUNNY     66  38  35 CALM      30.15S
SISSETON         N/A     71  39  31 W5        30.11F
$$

SDZ017-020-022-023-036>040-048>070-270200-
SOUTHEAST SOUTH DAKOTA

CITY           SKY/WX    TMP DP  RH WIND       PRES   REMARKS
SIOUX FALLS    SUNNY     69  44  40 N6        30.14S
HURON          SUNNY     69  39  33 E6        30.13S
CHAMBERLAIN    SUNNY     73  37  26 E6        30.12S
MITCHELL       SUNNY     71  38  29 E8        30.13S
YANKTON        SUNNY     70  37  29 NE3       30.13F
$$

ABBREVIATIONS USED IN REMARKS
   TC - TEMPERATURE IN CELSIUS
  WCI - WIND CHILL INDEX
   HX - HEAT INDEX
  VSB - VISIBILITY





USA.gov is the U.S. government's official web portal to all federal, state and local government web resources and services.